Tracking 19562 objects as of 24-Mar-2019
HD Live streaming from Space Station
objects crossing your sky now

LEMUR 2 MARSHALL

Track LEMUR 2 MARSHALL now!
10-day predictions
LEMUR 2 MARSHALL is classified as:


NORAD ID: 43165
Int'l Code: 2018-010C
Perigee: 493.2 km
Apogee: 536.8 km
Inclination: 82.9 °
Period: 94.8 minutes
Semi major axis: 6886 km
RCS: Unknown
Launch date: January 21, 2018
Source: United States (US)
Launch site: Rocket Lab Launch Complex (RLLC)
aabbcc
Your satellite tracking list
Your tracking list is empty




NASA's NSSDC Master Catalog

Two Line Element Set (TLE):
1 43165U 18010C   19083.46557853  .00001544  00000-0  70529-4 0  9994
2 43165  82.9150  99.0215 0031681 180.4534 179.6679 15.19328295 64860
Source of the keplerian elements: AFSPC